GW6765 Weather Reports


time (UTC)temp
F
wind
direction
speed
knots
gust
knots
rain 1hr
in
rain 24hr
in
rain mn
in
humidity
%
barometer
mb
20260506070139 49 5 4.3 9.6 0.00 0.00 0.00 46 866.0
20260506060204 49 38 11.3 17.4 0.00 0.00 0.00 44 865.2
20260506050152 49 326 3.5 9.6 0.00 0.00 0.00 44 865.0
20260506040753 49 5 7.0 12.2 0.00 0.00 0.00 55 864.6
20260506030437 51 5 7.8 12.2 0.00 0.00 0.00 51 864.0
20260506022725 55 305 10.4 17.4 0.00 0.00 0.00 46 863.5
20260506010317 56 355 13.0 18.2 0.00 0.00 0.00 47 863.0
20260506003003 55 306 12.2 18.2 0.00 0.00 0.00 49 863.1
20260505235529 55 304 12.2 19.1 0.00 0.00 0.00 51 863.4
20260505222242 55 294 9.6 20.9 0.00 0.00 0.00 52 863.6
20260505211607 57 20 7.8 17.4 0.00 0.00 0.00 37 863.7
20260505200441 56 19 10.4 16.5 0.00 0.00 0.00 41 863.8
20260505193204 57 34 6.1 10.4 0.00 0.00 0.00 43 863.9
20260505183034 56 36 6.1 14.8 0.00 0.00 0.00 46 864.0
20260505172917 54 53 9.6 17.4 0.00 0.00 0.00 44 863.4
20260505162826 54 5 7.8 16.5 0.00 0.00 0.00 44 863.1
20260505152524 53 338 2.6 10.4 0.00 0.00 0.00 43 863.0
20260505130150 49 49 4.3 7.8 0.00 0.00 0.00 44 862.1
20260505120137 49 59 6.1 9.6 0.00 0.00 0.00 47 861.7
20260505110115 49 11 4.3 17.4 0.00 0.00 0.00 46 861.5
20260505100139 50 144 3.5 19.1 0.00 0.00 0.00 45 861.2
20260505090113 49 258 5.2 14.8 0.00 0.00 0.00 50 861.1
20260505080115 50 42 11.3 23.5 0.00 0.00 0.00 49 861.2